Home   Weather   Lugano   Past weeks

Flag for Switzerland Past Weather in Lugano, Switzerland — Yesterday and Last 2 Weeks

Now
52 °F

Rain. Partly cloudy.


Feels Like: 52 °F
Forecast: 45 / 54 °F
Wind: 2 mph from North

Location: Lugano Airport

Current Time: Apr 26, 2017 at 6:28:28 am

Latest Report: Apr 26, 2017 at 5:50 am


Visibility: 3 mi

Pressure: 29.74 "Hg

Humidity: 100%

Dew Point: 52 °F

Location of LuganoLocation

Past Weather in Lugano — Graph

°F

Lugano Temperature Yesterday

Maximum temperature yesterday: 57 °F (at 1:50 pm)
Minimum temperature yesterday: 52 °F (at 12:20 am)
Average temperature yesterday: 53 °F

High & Low Weather Summary for the Past Weeks

 TemperatureHumidityPressure
High77 °F (Apr 11, 4:50 pm)100% (Apr 11, 6:50 am)30.42 "Hg (Apr 11, 6:50 am)
Low34 °F (Apr 21, 5:20 am)7% (Apr 20, 4:50 pm)29.74 "Hg (Apr 26, 4:20 am)
Average55 °F57%30.02 "Hg
* Reported Apr 11 5:20 am — Apr 26 5:20 am, Lugano, Weather by CustomWeather, © 2017

Note: Actual official high and low records may vary slightly from our data, if they occured in-between our weather recording intervals... More about our weather records

Advertising

Lugano Weather History for the Previous 24 Hours

Scroll right to see more
 ConditionsComfort  
Time TempWeatherWind HumidityBarometerVisibility
5:20 am
Wed, Apr 26
52 °FLight rain. Fog.2 mph100%29.74 "Hg2 mi
4:50 am52 °FRain. Partly cloudy.2 mph94%29.74 "Hg3 mi
4:20 am52 °FRain showers. Partly cloudy.2 mph94%29.74 "HgN/A
3:50 am52 °FPassing clouds.3 mph94%29.77 "HgN/A
3:20 am52 °FLight rain. Partly cloudy.2 mph100%29.77 "HgN/A
2:50 am52 °FLight rain. Mostly cloudy.2 mph100%29.77 "Hg6 mi
2:20 am52 °FLight rain. Mostly cloudy.2 mph94%29.80 "HgN/A
1:50 am52 °FRain. Partly cloudy.3 mph100%29.80 "Hg5 mi
1:20 am52 °FRain. Passing clouds.2 mph100%29.80 "Hg4 mi
12:50 am52 °FLight rain. Fog.2 mph100%29.80 "Hg2 mi
12:20 am52 °FLight rain. Fog.2 mph100%29.80 "Hg2 mi
11:50 pm
Tue, Apr 25
52 °FLight rain. Fog.1 mph100%29.80 "Hg2 mi
11:20 pm52 °FHeavy rain. Fog.2 mph100%29.83 "Hg2 mi
10:50 pm54 °FRain. Fog.1 mph94%29.83 "Hg2 mi
10:20 pm54 °FRain. Fog.2 mph94%29.83 "Hg3 mi
9:50 pm54 °FRain. Passing clouds.2 mph100%29.83 "Hg4 mi
9:20 pm54 °FRain. Passing clouds.3 mph100%29.80 "Hg4 mi
8:50 pm54 °FScattered showers. Passing clouds.3 mph100%29.80 "Hg4 mi
8:20 pm54 °FScattered showers. Partly sunny.3 mph94%29.77 "Hg4 mi
7:50 pm54 °FScattered showers. Partly sunny.2 mph100%29.77 "Hg4 mi
7:20 pm55 °FScattered showers. Partly sunny.2 mph94%29.80 "Hg4 mi
6:50 pm55 °FSprinkles. Partly sunny.2 mph88%29.80 "Hg4 mi
6:20 pm54 °FScattered showers. Partly sunny.3 mph94%29.80 "Hg5 mi
5:50 pm54 °FScattered showers. Partly sunny.1 mph94%29.83 "Hg4 mi
5:20 pm54 °FBroken clouds.2 mph100%29.83 "Hg3 mi
4:50 pm54 °FLight rain. Fog.3 mph100%29.86 "Hg2 mi
4:20 pm54 °FRain showers. Fog.2 mph94%29.86 "Hg3 mi
3:50 pm54 °FRain showers. Fog.3 mph94%29.86 "Hg3 mi
3:20 pm55 °FRain showers. Broken clouds.5 mph88%29.86 "Hg3 mi
2:50 pm57 °FBroken clouds.1 mph82%29.89 "Hg4 mi
2:20 pm57 °FPartly sunny.1 mph82%29.89 "Hg4 mi
1:50 pm57 °FFog.1 mph82%29.92 "Hg3 mi
1:20 pm55 °FDrizzle. More clouds than sun.1 mph88%29.92 "Hg2 mi
12:50 pm55 °FFog.2 mph88%29.92 "Hg2 mi
12:20 pm55 °FFog.1 mph88%29.92 "Hg2 mi
11:50 am54 °FFog.1 mph94%29.92 "Hg2 mi
11:20 am54 °FFog.1 mph94%29.95 "Hg2 mi
10:50 am54 °FFog.1 mph94%29.95 "Hg2 mi
10:20 am52 °FScattered showers. Fog.1 mph100%29.95 "Hg1 mi
9:50 am52 °FScattered showers. Fog.No wind100%29.95 "Hg1 mi
9:20 am52 °FSprinkles. Fog.2 mph100%29.95 "Hg1 mi
8:50 am52 °FSprinkles. Fog.1 mph100%29.95 "Hg1 mi
8:20 am52 °FLight rain. Fog.3 mph100%29.95 "Hg2 mi
7:50 am52 °FLight rain. Fog.2 mph100%29.95 "Hg2 mi
7:20 am52 °FScattered showers. Fog.No wind100%29.95 "Hg1 mi
6:50 am52 °FFog.1 mph100%29.95 "Hg1 mi
6:20 am52 °FFog.1 mph100%29.95 "Hg1 mi
Weather by CustomWeather, © 2017

See weather overviewHow to use our weather pages